Weather History for PADQ - September, 2012

Change the Weather History Date:

Tuesday, September 4, 2012

  Actual Average Record
Temperature  
Mean Temperature 47 °F 53 °F  
Max Temperature 53 °F 59 °F 69 °F (2002)
Min Temperature 41 °F 46 °F 36 °F (1988)
Degree Days  
Heating Degree Days 18 12  
Month to date heating degree days 59 48  
Since 1 July heating degree days 793 678  
Cooling Degree Days 0    
Month to date cooling degree days 0  
Year to date cooling degree days 0  
Moisture  
Dew Point 46 °F    
Average Humidity 0    
Maximum Humidity 0    
Minimum Humidity 0    
Precipitation  
Precipitation 0.14 in 0.19 in 1.95 in (1995)
Month to date precipitation 0.18 0.75  
Year to date precipitation 33.59 47.54  
Snow  
Snow 0.00 in 0.00 in 0.00 in (2014)
Month to date snowfall 0.0 0.0  
Since 1 July snowfall 0.0 0.0  
Since 1 September snowfall 0.0 0.0  
Snow Depth 0.00 in    
Sea Level Pressure  
Sea Level Pressure 29.75 in    
Wind  
Wind Speed 9 mph (SE)    
Max Wind Speed 23 mph    
Max Gust Speed 33 mph    
Visibility 8 miles    
Events Rain    
T = Trace of Precipitation, MM = Missing Value Source: NWS Daily Summary

Daily Weather History Graph

Daily Weather History Graph

Search for Another Location

Airport or City:

Trip Planner

Search our weather history database for the weather conditions in past years. The results will help you decide how hot, cold, wet, or windy it might be!

Date:

Astronomy

Sep. 04, 2012 Rise Set
Actual Time 7:18 AM AKDT 8:57 PM AKDT
Civil Twilight 6:37 AM AKDT 9:38 PM AKDT
Nautical Twilight 5:45 AM AKDT 10:29 PM AKDT
Astronomical Twilight 4:45 AM AKDT 11:28 PM AKDT
Moon 9:43 PM AKDT (9/4) 12:45 PM AKDT (9/4)
Length of Visible Light 15h 01m
Length of Day
13h 39m
Waning Gibbous, 82% of the Moon is Illuminated
Sep 4
Waning Gibbous
Sep 8
Last Quarter
Sep 15
New
Sep 22
First Quarter
Sep 29
Full

Hourly Weather History & Observations

Time (AKDT) Temp. Windchill Dew Point Humidity Pressure Visibility Wind Dir Wind Speed Gust Speed Precip Events Conditions
12:53 AM 42.1 °F 37.1 °F 39.0 °F 89% 29.90 in 10.0 mi West 8.1 mph - N/A   Scattered Clouds
1:53 AM 41.0 °F 36.4 °F 37.9 °F 89% 29.91 in 10.0 mi West 6.9 mph - N/A   Scattered Clouds
2:53 AM 42.1 °F 40.2 °F 39.0 °F 89% 29.91 in 10.0 mi WNW 3.5 mph - N/A   Overcast
3:53 AM 42.1 °F - 39.0 °F 89% 29.92 in 10.0 mi Calm Calm - N/A   Overcast
4:53 AM 45.0 °F - 41.0 °F 86% 29.91 in 10.0 mi Calm Calm - N/A   Overcast
5:53 AM 48.0 °F - 41.0 °F 77% 29.91 in 10.0 mi SSW 6.9 mph - N/A   Overcast
6:53 AM 48.9 °F - 39.9 °F 71% 29.91 in 10.0 mi Variable 3.5 mph - N/A   Overcast
7:53 AM 50.0 °F - 41.0 °F 71% 29.90 in 10.0 mi SSE 6.9 mph - N/A   Overcast
8:53 AM 51.1 °F - 42.1 °F 71% 29.88 in 10.0 mi SSE 6.9 mph - N/A   Overcast
9:53 AM 52.0 °F - 42.1 °F 69% 29.86 in 10.0 mi SSE 13.8 mph 24.2 mph N/A   Overcast
10:53 AM 51.1 °F - 45.0 °F 80% 29.83 in 9.0 mi SE 15.0 mph 24.2 mph 0.00 in Rain Light Rain
11:53 AM 52.0 °F - 46.0 °F 80% 29.83 in 10.0 mi SSE 18.4 mph 24.2 mph 0.00 in Rain Light Rain
12:53 PM 53.1 °F - 46.9 °F 80% 29.80 in 8.0 mi SSE 16.1 mph 24.2 mph 0.01 in Rain Light Rain
1:53 PM 52.0 °F - 48.9 °F 89% 29.77 in 4.0 mi SSE 16.1 mph 21.9 mph 0.03 in Rain Light Rain
2:53 PM 52.0 °F - 50.0 °F 93% 29.74 in 3.0 mi ESE 15.0 mph - 0.10 in Rain Light Rain
3:53 PM 52.0 °F - 51.1 °F 97% 29.66 in 3.0 mi East 20.7 mph 27.6 mph 0.09 in Rain Rain
4:13 PM 53.6 °F - 51.8 °F 94% 29.66 in 2.0 mi SE 17.3 mph 24.2 mph 0.02 in Rain Rain
4:37 PM 53.6 °F - 51.8 °F 94% 29.63 in 4.0 mi SE 16.1 mph - 0.06 in Rain Light Rain
4:53 PM 55.0 °F - 51.1 °F 86% 29.63 in 5.0 mi SE 17.3 mph 24.2 mph 0.07 in Rain Light Rain
5:00 PM 55.4 °F - 51.8 °F 88% 29.62 in 5.0 mi SE 16.1 mph 24.2 mph 0.01 in Rain Rain
5:04 PM 55.4 °F - 51.8 °F 88% 29.63 in 4.0 mi SSE 15.0 mph 25.3 mph 0.02 in Rain Rain
5:53 PM 54.0 °F - 52.0 °F 93% 29.60 in 6.0 mi NE 10.4 mph - 0.07 in Rain Light Rain
6:53 PM 55.9 °F - 52.0 °F 87% 29.60 in 10.0 mi East 9.2 mph - 0.03 in   Overcast
7:53 PM 55.0 °F - 52.0 °F 89% 29.59 in 10.0 mi SE 11.5 mph - 0.00 in   Mostly Cloudy
8:53 PM 54.0 °F - 51.1 °F 90% 29.60 in 10.0 mi ESE 6.9 mph - N/A   Mostly Cloudy
9:53 PM 53.1 °F - 48.0 °F 83% 29.62 in 10.0 mi ESE 8.1 mph - N/A   Mostly Cloudy
10:53 PM 54.0 °F - 43.0 °F 66% 29.63 in 10.0 mi South 5.8 mph - N/A   Mostly Cloudy
11:00 PM 51.8 °F - 44.6 °F 76% 29.63 in 10.0 mi Calm Calm - N/A   Overcast
11:53 PM 54.0 °F - 44.1 °F 69% 29.64 in 10.0 mi South 10.4 mph - N/A   Overcast